DW1253 Weather Reports


time (UTC)temp
C
wind
direction
speed
KPH
gust
KPH
rain 1hr
cm
rain 24hr
cm
rain mn
cm
humidity
%
barometer
mb
20260505041342 15 205 4.8 16.1 0.00 0.00 0.00 76 1002.6
20260505040834 15 189 4.8 16.1 0.00 0.00 0.00 76 1002.6
20260505040336 15 169 8.0 16.1 0.00 0.00 0.00 76 1002.7
20260505035847 15 202 3.2 11.3 0.00 0.00 0.00 76 1002.5
20260505035401 15 286 1.6 12.9 0.00 0.00 0.00 77 1002.4
20260505034835 14 148 4.8 12.9 0.00 0.00 0.00 77 1002.6
20260505034403 14 128 3.2 9.7 0.00 0.00 0.00 77 1002.5
20260505033840 14 295 3.2 16.1 0.00 0.00 0.00 77 1002.6
20260505033401 15 146 4.8 12.9 0.00 0.00 0.00 76 1002.5
20260505032846 15 165 6.4 17.7 0.00 0.00 0.00 76 1002.6
20260505032338 15 157 6.4 17.7 0.00 0.00 0.00 75 1002.6
20260505031850 15 187 4.8 14.5 0.00 0.00 0.00 75 1002.8
20260505031346 15 219 4.8 11.3 0.00 0.00 0.00 74 1002.8
20260505030847 15 114 1.6 12.9 0.00 0.00 0.00 74 1002.8
20260505030342 15 226 3.2 12.9 0.00 0.00 0.00 73 1002.8
20260505025845 15 173 3.2 9.7 0.00 0.00 0.00 73 1002.8
20260505025404 15 231 4.8 16.1 0.00 0.00 0.00 72 1002.9
20260505024856 15 188 4.8 16.1 0.00 0.00 0.00 72 1003.1
20260505024406 15 185 3.2 19.3 0.00 0.00 0.00 72 1003.1
20260505023903 15 214 6.4 19.3 0.00 0.00 0.00 72 1003.1
20260505023336 15 138 3.2 9.7 0.00 0.00 0.00 71 1003.0
20260505022848 15 166 4.8 12.9 0.00 0.00 0.00 70 1003.1
20260505022343 15 192 1.6 16.1 0.00 0.00 0.00 69 1003.2
20260505021839 15 119 6.4 16.1 0.00 0.00 0.00 67 1003.3
20260505021345 16 253 6.4 14.5 0.00 0.00 0.00 67 1003.2
20260505020842 16 254 3.2 11.3 0.00 0.00 0.00 65 1003.2
20260505020337 16 255 3.2 24.1 0.00 0.00 0.00 65 1003.2
20260505015847 16 323 6.4 24.1 0.00 0.00 0.00 63 1003.2
20260505015349 17 238 9.7 22.5 0.00 0.00 0.00 59 1003.1
20260505014837 16 234 8.0 16.1 0.00 0.00 0.00 55 1003.3
20260505014343 16 250 6.4 16.1 0.00 0.00 0.00 55 1002.9
20260505013842 16 263 3.2 8.0 0.00 0.00 0.00 54 1002.7
20260505013347 16 209 3.2 8.0 0.00 0.00 0.00 55 1002.6
20260505012845 16 182 1.6 9.7 0.00 0.00 0.00 53 1002.6
20260505012349 16 113 3.2 14.5 0.00 0.00 0.00 53 1002.7
20260505011839 16 148 4.8 8.0 0.00 0.00 0.00 53 1002.7
20260505011344 16 247 1.6 6.4 0.00 0.00 0.00 53 1002.9
20260505010846 16 254 1.6 8.0 0.00 0.00 0.00 53 1002.9
20260505010342 16 246 3.2 8.0 0.00 0.00 0.00 53 1002.9
20260505005845 16 221 3.2 12.9 0.00 0.00 0.00 52 1002.9
20260505005349 16 248 4.8 12.9 0.00 0.00 0.00 52 1002.8
20260505004833 16 241 3.2 9.7 0.00 0.00 0.00 51 1002.7
20260505004344 17 315 1.6 11.3 0.00 0.00 0.00 52 1002.7
20260505003837 17 254 3.2 14.5 0.00 0.00 0.00 51 1002.8
20260505003334 17 227 4.8 14.5 0.00 0.00 0.00 51 1002.7
20260505002858 17 214 4.8 11.3 0.00 0.00 0.00 50 1002.7
20260505002334 17 273 1.6 9.7 0.00 0.00 0.00 50 1002.6
20260505001835 17 246 3.2 9.7 0.00 0.00 0.00 50 1002.7
20260505001347 17 289 1.6 16.1 0.00 0.00 0.00 50 1002.8
20260505000844 17 219 6.4 16.1 0.00 0.00 0.00 48 1002.8
20260505000343 17 207 3.2 14.5 0.00 0.00 0.00 48 1002.9
20260504235851 18 225 1.6 16.1 0.00 0.00 0.00 46 1002.8
20260504235353 18 318 3.2 16.1 0.00 0.00 0.00 45 1002.8
20260504234907 18 177 3.2 20.9 0.00 0.00 0.00 45 1002.8
20260504234338 18 244 8.0 20.9 0.00 0.00 0.00 43 1002.8
20260504233837 18 222 6.4 20.9 0.00 0.00 0.00 43 1002.7
20260504233356 18 224 6.4 25.7 0.00 0.00 0.00 43 1002.8
20260504232843 18 230 6.4 19.3 0.00 0.00 0.00 42 1002.7
20260504232344 18 207 6.4 16.1 0.00 0.00 0.00 41 1002.7
20260504231905 18 233 3.2 16.1 0.00 0.00 0.00 42 1002.8
20260504231338 19 211 9.7 24.1 0.00 0.00 0.00 40 1002.7
20260504230844 19 274 8.0 24.1 0.00 0.00 0.00 42 1002.7
20260504230346 19 227 9.7 24.1 0.00 0.00 0.00 39 1002.7
20260504225848 19 286 8.0 22.5 0.00 0.00 0.00 41 1002.8
20260504225348 20 242 9.7 19.3 0.00 0.00 0.00 37 1002.7
20260504224909 20 205 4.8 14.5 0.00 0.00 0.00 39 1002.8
20260504224340 20 161 4.8 22.5 0.00 0.00 0.00 39 1002.8
20260504223834 20 290 8.0 22.5 0.00 0.00 0.00 39 1002.8
20260504223358 20 236 9.7 25.7 0.00 0.00 0.00 36 1002.8
20260504222915 20 228 6.4 25.7 0.00 0.00 0.00 38 1002.8
20260504222346 20 137 9.7 25.7 0.00 0.00 0.00 37 1002.6
20260504221843 20 281 6.4 25.7 0.00 0.00 0.00 37 1002.7
20260504221407 20 224 11.3 22.5 0.00 0.00 0.00 39 1002.7
20260504220912 20 219 12.9 24.1 0.00 0.00 0.00 39 1002.7
20260504220345 20 247 12.9 19.3 0.00 0.00 0.00 40 1002.8
20260504215847 20 225 8.0 20.9 0.00 0.00 0.00 41 1002.8
20260504215342 20 46 6.4 19.3 0.00 0.00 0.00 40 1002.8
20260504214903 20 209 1.6 19.3 0.00 0.00 0.00 41 1002.8
20260504214340 20 207 9.7 19.3 0.00 0.00 0.00 42 1002.8
20260504213849 20 217 6.4 16.1 0.00 0.00 0.00 43 1002.7
20260504213410 21 309 6.4 16.1 0.00 0.00 0.00 40 1002.5
20260504212847 21 218 4.8 25.7 0.00 0.00 0.00 40 1002.5
20260504212346 21 247 6.4 25.7 0.00 0.00 0.00 38 1002.6
20260504211859 20 230 6.4 19.3 0.00 0.00 0.00 41 1002.7
20260504211339 21 176 3.2 11.3 0.00 0.00 0.00 39 1002.7
20260504210919 21 222 6.4 12.9 0.00 0.00 0.00 39 1002.6
20260504210407 21 203 6.4 17.7 0.00 0.00 0.00 38 1002.5
20260504205856 22 234 8.0 17.7 0.00 0.00 0.00 36 1002.6
20260504205352 21 331 8.0 16.1 0.00 0.00 0.00 37 1002.5
20260504204915 21 169 6.4 17.7 0.00 0.00 0.00 39 1002.5
20260504204347 21 220 6.4 16.1 0.00 0.00 0.00 39 1002.6
20260504203848 21 265 9.7 19.3 0.00 0.00 0.00 38 1002.8
20260504203359 21 242 6.4 20.9 0.00 0.00 0.00 41 1002.8
20260504202910 21 215 11.3 20.9 0.00 0.00 0.00 38 1002.8
20260504202336 21 309 8.0 25.7 0.00 0.00 0.00 39 1003.0
20260504201850 20 209 9.7 17.7 0.00 0.00 0.00 41 1003.0
20260504201408 21 290 6.4 20.9 0.00 0.00 0.00 38 1003.0
20260504200838 21 250 9.7 20.9 0.00 0.00 0.00 40 1003.1
20260504200336 21 137 6.4 20.9 0.00 0.00 0.00 44 1003.2
20260504195834 21 234 6.4 25.7 0.00 0.00 0.00 43 1003.3
20260504195413 21 309 4.8 25.7 0.00 0.00 0.00 41 1003.2
20260504194834 21 240 6.4 12.9 0.00 0.00 0.00 40 1003.4
20260504194338 21 171 3.2 29.0 0.00 0.00 0.00 38 1003.5
20260504193844 21 237 6.4 29.0 0.00 0.00 0.00 39 1003.5
20260504193335 22 257 11.3 17.7 0.00 0.00 0.00 39 1003.6
20260504192853 21 247 6.4 24.1 0.00 0.00 0.00 42 1003.5
20260504192352 21 226 9.7 24.1 0.00 0.00 0.00 40 1003.9
20260504191857 21 235 8.0 20.9 0.00 0.00 0.00 41 1003.8
20260504191352 21 192 4.8 14.5 0.00 0.00 0.00 46 1003.8
20260504190854 20 246 6.4 22.5 0.00 0.00 0.00 49 1003.9
20260504190351 21 243 9.7 22.5 0.00 0.00 0.00 42 1004.0
20260504185850 21 280 6.4 24.1 0.00 0.00 0.00 44 1004.1
20260504185347 21 291 9.7 25.7 0.00 0.00 0.00 43 1004.0
20260504184854 21 245 17.7 25.7 0.00 0.00 0.00 41 1004.1
20260504184354 21 191 8.0 22.5 0.00 0.00 0.00 46 1004.0
20260504183852 21 215 11.3 22.5 0.00 0.00 0.00 43 1004.1
20260504183343 21 180 12.9 22.5 0.00 0.00 0.00 43 1004.0
20260504182837 21 257 9.7 19.3 0.00 0.00 0.00 42 1004.0
20260504182353 21 181 4.8 16.1 0.00 0.00 0.00 46 1004.1
20260504181851 20 195 8.0 27.4 0.00 0.00 0.00 42 1004.3
20260504181408 21 245 11.3 27.4 0.00 0.00 0.00 43 1004.2
20260504180836 21 254 8.0 27.4 0.00 0.00 0.00 45 1004.3
20260504180356 20 244 9.7 27.4 0.00 0.00 0.00 46 1004.4
20260504175847 20 215 12.9 32.2 0.00 0.00 0.00 43 1004.6
20260504175344 20 265 9.7 29.0 0.00 0.00 0.00 51 1004.5
20260504174850 21 282 12.9 29.0 0.00 0.00 0.00 45 1004.6
20260504174411 21 239 9.7 17.7 0.00 0.00 0.00 47 1004.7
20260504173853 20 225 8.0 27.4 0.00 0.00 0.00 45 1004.7
20260504173335 20 5 12.9 27.4 0.00 0.00 0.00 47 1004.7
20260504172834 20 170 9.7 19.3 0.00 0.00 0.00 50 1004.9
20260504172355 20 273 6.4 32.2 0.00 0.00 0.00 51 1005.0
20260504171914 19 286 11.3 32.2 0.00 0.00 0.00 48 1004.9
20260504171346 20 235 11.3 27.4 0.00 0.00 0.00 49 1004.9
20260504170857 20 259 12.9 27.4 0.00 0.00 0.00 49 1005.0
20260504170339 19 196 11.3 25.7 0.00 0.00 0.00 52 1005.0
20260504160334 17 277 9.7 19.3 0.00 0.00 0.00 52 1005.5
20260504150855 16 186 12.9 24.1 0.00 0.00 0.00 53 1005.9
20260504150344 16 276 9.7 20.9 0.00 0.00 0.00 54 1005.9
20260504140859 15 205 3.2 17.7 0.00 0.00 0.00 56 1005.9
20260504140351 15 246 11.3 19.3 0.00 0.00 0.00 60 1005.8
20260504130337 11 119 6.4 11.3 0.00 0.00 0.00 64 1006.3
20260504110348 8 148 8.0 20.9 0.00 0.05 0.00 66 1006.2
20260504100401 8 247 3.2 20.9 0.00 0.05 0.00 65 1005.8
20260504081851 7 218 3.2 19.3 0.00 0.05 0.00 69 1006.6
20260504070344 7 247 3.2 6.4 0.00 0.05 0.00 69 1007.3
20260504050332 7 267 4.8 12.9 0.00 0.05 0.00 64 1008.1
20260504045839 7 277 4.8 16.1 0.00 0.05 0.00 64 1008.1
20260504045343 7 222 6.4 16.1 0.00 0.05 0.00 65 1008.0
20260504044833 7 166 3.2 16.1 0.00 0.05 0.00 66 1008.1
20260504044338 7 217 4.8 16.1 0.00 0.05 0.00 66 1008.1
20260504043841 7 197 3.2 14.5 0.00 0.05 0.00 66 1008.1
20260504043343 7 228 6.4 19.3 0.00 0.05 0.00 65 1008.1
20260504042837 7 224 4.8 14.5 0.00 0.05 0.00 67 1008.1
20260504042334 7 242 4.8 12.9 0.00 0.05 0.00 67 1008.1
20260504041847 7 190 6.4 14.5 0.00 0.05 0.00 66 1008.1